Location: Argonnex
(45.9500°N, 6.1333°E)
Time: 06:50:31
(UTC+00:00)

Cosmos 1544 Rocket - Pass Details

Date: 28 January 2023
Orbit: 604 x 629 km, 82.5° (Epoch: 21 March)

Event Time Altitude Azimuth Distance (km) Brightness Sun altitude
Rises 17:19:59 0° 355° (N) 2,873 6.9 -8.2°
Reaches altitude 10° 17:22:16 10° 0° (N) 1,963 6.0 -8.5°
Maximum altitude 17:26:31 53° 78° (ENE) 745 3.6 -9.2°
Drops below altitude 10° 17:30:44 10° 156° (SSE) 1,947 6.0 -9.9°
Sets 17:32:58 0° 161° (SSE) 2,847 6.9 -10.3°
